Preview of NWS' New Version of Forecast
This preview is not operational and should not be used for support decisions.

Regional Weather Roundup (RWR)

Issued by National Weather Service (NWS)

                            
000
ASCA42 TJSJ 200410
RWRPR 
PUERTO RICO/U.S. VIRGIN ISLANDS HOURLY WEATHER ROUNDUP
NATIONAL WEATHER SERVICE SAN JUAN PR
1200 AM AST FRI SEP 20 2019

PRZ001>002-007>008-010-200500-
PUERTO RICO
  
CITY           SKY/WX    TMP DP  RH WIND       PRES   REMARKS
SAN JUAN LMM   PTCLDY    82  75  78 CALM      29.89S                  
CEIBA          CLEAR     79  77  94 CALM      29.91S                  
$$

VIZ001>002-200500-
U.S. VIRGIN ISLANDS
  
CITY           SKY/WX    TMP DP  RH WIND       PRES   REMARKS
CHARLOTTE AMA  PTCLDY    84  75  74 SE9       29.89S HX  92           
CHRISTIANSTED  PTCLDY    81  75  83 CALM      29.90F                  
$$

HOURLY WEATHER ROUNDUP FOR THE NEWS MEDIA
  
CITY           SKY/WX    TMP DP  RH WIND       PRES   REMARKS
ORLANDO        FAIR      76  65  68 NE7       30.07S                  
NEW YORK       FAIR      61  55  81 W13       30.28F                  
NEWARK         FAIR      58  44  60 W9        30.28S                  
CHICAGO        MOCLDY    73  59  61 NW5       30.08R                  
HARTFORD       FAIR      43  41  93 CALM      30.25F                  
BOSTON         FAIR      57  46  66 SW6       30.25S                  
DALLAS         CLOUDY    76  70  82 E5        29.91R                  
PHILADELPHIA   FAIR      58  50  75 SW6       30.30S                  
LOS ANGELES    CLEAR     70  57  63 W8        29.82R                  
WASHINGTON DC  FAIR      51  44  77 S3        30.30S